CPA902 VHHH-RPLL

Flight info

Callsign CPA902
Flight time N/A
Altitude 39000
Route DALOL V641 NOMAN A461 AVMUP W16 TADEL TADEL3R
Aircraft B77W/H-SDE1E2E3FGHIJ2J3J4J5M1RWXY/LB1D1

Departure

Time 2026-05-08 02:29
Airport Hong Kong International Airport (VHHH)

Arrival

Time N/A
Airport Ninoy Aquino International Airport (RPLL)
Time Latitude Longitude Altitude Speed Heading
2026-05-08 01:39 22.31503 113.92214 38 ft 0 kts 129°
2026-05-08 02:11 22.31508 113.92207 38 ft 2 kts 129°
2026-05-08 02:11 22.31517 113.92195 37 ft 2 kts 129°
2026-05-08 02:12 22.31527 113.92182 37 ft 2 kts 132°
2026-05-08 02:12 22.31539 113.92172 36 ft 2 kts 161°
2026-05-08 02:12 22.31553 113.92170 36 ft 2 kts 184°
2026-05-08 02:12 22.31568 113.92173 36 ft 2 kts 206°
2026-05-08 02:13 22.31581 113.92182 37 ft 2 kts 229°
2026-05-08 02:13 22.31588 113.92194 37 ft 0 kts 249°
2026-05-08 02:13 22.31590 113.92200 37 ft 0 kts 252°
2026-05-08 02:18 22.31586 113.92189 37 ft 5 kts 251°
2026-05-08 02:18 22.31571 113.92143 36 ft 7 kts 250°
2026-05-08 02:18 22.31552 113.92083 35 ft 8 kts 250°
2026-05-08 02:18 22.31530 113.92015 34 ft 10 kts 251°
2026-05-08 02:19 22.31506 113.91941 34 ft 10 kts 251°
2026-05-08 02:19 22.31500 113.91922 34 ft 4 kts 255°
2026-05-08 02:19 22.31499 113.91886 34 ft 4 kts 279°
2026-05-08 02:19 22.31516 113.91864 34 ft 3 kts 329°
2026-05-08 02:20 22.31541 113.91846 33 ft 4 kts 310°
2026-05-08 02:20 22.31550 113.91817 33 ft 4 kts 270°
2026-05-08 02:20 22.31544 113.91783 34 ft 5 kts 259°
2026-05-08 02:20 22.31529 113.91722 34 ft 9 kts 253°
2026-05-08 02:21 22.31507 113.91653 34 ft 9 kts 250°
2026-05-08 02:21 22.31484 113.91586 34 ft 9 kts 251°
2026-05-08 02:21 22.31464 113.91522 34 ft 8 kts 252°
2026-05-08 02:21 22.31444 113.91459 34 ft 8 kts 250°
2026-05-08 02:22 22.31438 113.91439 34 ft 8 kts 250°
2026-05-08 02:22 22.31405 113.91340 35 ft 9 kts 251°
2026-05-08 02:22 22.31382 113.91263 35 ft 12 kts 251°
2026-05-08 02:22 22.31354 113.91178 36 ft 11 kts 251°
2026-05-08 02:23 22.31346 113.91152 36 ft 11 kts 251°
2026-05-08 02:23 22.31283 113.90956 35 ft 11 kts 250°
2026-05-08 02:23 22.31255 113.90870 33 ft 12 kts 251°
2026-05-08 02:24 22.31225 113.90777 32 ft 13 kts 251°
2026-05-08 02:24 22.31196 113.90687 32 ft 11 kts 251°
2026-05-08 02:24 22.31170 113.90608 32 ft 10 kts 251°
2026-05-08 02:24 22.31146 113.90534 32 ft 10 kts 250°
2026-05-08 02:25 22.31122 113.90461 32 ft 10 kts 251°
2026-05-08 02:25 22.31098 113.90387 32 ft 10 kts 251°
2026-05-08 02:25 22.31075 113.90311 32 ft 10 kts 251°
2026-05-08 02:25 22.31054 113.90246 33 ft 8 kts 251°
2026-05-08 02:26 22.31035 113.90189 34 ft 7 kts 251°
2026-05-08 02:26 22.31017 113.90133 33 ft 8 kts 250°
2026-05-08 02:26 22.30996 113.90073 33 ft 8 kts 250°
2026-05-08 02:26 22.30976 113.90007 33 ft 9 kts 252°
2026-05-08 02:27 22.30962 113.89938 32 ft 8 kts 282°
2026-05-08 02:27 22.31008 113.89894 32 ft 9 kts 341°
2026-05-08 02:27 22.31069 113.89871 32 ft 9 kts 347°
2026-05-08 02:27 22.31109 113.89883 32 ft 5 kts 41°
2026-05-08 02:28 22.31130 113.89919 32 ft 5 kts 69°
2026-05-08 02:28 22.31148 113.89970 31 ft 13 kts 70°
2026-05-08 02:28 22.31252 113.90296 27 ft 92 kts 71°
2026-05-08 02:28 22.31566 113.91267 58 ft 175 kts 69°
2026-05-08 02:29 22.32009 113.92603 755 ft 202 kts 70°
2026-05-08 02:29 22.32452 113.93974 2216 ft 196 kts 70°
2026-05-08 02:29 22.32892 113.95351 3115 ft 203 kts 70°
2026-05-08 02:29 22.33340 113.96829 3827 ft 220 kts 76°
2026-05-08 02:30 22.33644 113.98531 4539 ft 239 kts 79°
2026-05-08 02:30 22.33932 114.00335 5289 ft 257 kts 80°
2026-05-08 02:30 22.34248 114.02289 6054 ft 275 kts 80°
2026-05-08 02:30 22.34483 114.04371 7036 ft 283 kts 93°
2026-05-08 02:31 22.33985 114.06403 7991 ft 288 kts 120°
2026-05-08 02:31 22.32677 114.08012 8948 ft 292 kts 147°
2026-05-08 02:31 22.30822 114.08816 9888 ft 294 kts 174°
2026-05-08 02:31 22.28759 114.08847 10729 ft 304 kts 184°
2026-05-08 02:32 22.27341 114.08781 11184 ft 316 kts 184°